Location: Chaumontel
(49.1247°N, 2.4324°E)
Time: 01:58:33
(UTC+00:00)

IRIDIUM 103 - Pass Details

Date: 18 May 2025
Orbit: 775 x 779 km, 86.4° (Epoch: 12 June)

Event Time Altitude Azimuth Distance (km) Brightness Sun altitude
Exits shadow 03:08:35 - 258° (WSW) 2,727 6.6 -8.0°
Reaches altitude 10° 03:10:56 10° 280° (W) 2,337 6.5 -7.7°
Maximum altitude 03:12:22 11° 296° (WNW) 2,267 6.5 -7.5°
Drops below altitude 10° 03:13:48 10° 312° (NW) 2,341 6.8 -7.4°
Sets 03:18:16 0° 348° (NNW) 3,275 8.0 -6.8°
